sat.trackr.live / text

‹ back to catalog

STARLINK-31184

NORAD 58793 · 2024-012G

PAYLOAD ACTIVE UNKNOWN

§ Identity

Operator
Country
US
Launch date
2024-01-15
Launch site
AFETR
Launch vehicle
Mass (kg)
RCS (m²)

Purposes: comms

External: N2YO · Heavens-Above · Gunter

§ Orbital elements

Epoch: 2026-09-20T09:03:55.380384Z

Period
94.27 min
Inclination
43.0016°
Eccentricity
0.0000887
Mean motion
15.27576698 rev/d
Perigee alt
482.5 km
Apogee alt
483.7 km
Semi-major
6,861.2 km
B*
1.1434e-5
RAAN
145.5261°
Arg perigee
271.6730°
Mean anomaly
88.4020°
Rev number
15,101

§ Raw data

STARLINK-311841 58793U 24012G   26263.37772431  .00000053  00000+0  11434-4 0  99982 58793  43.0016 145.5261 0000887 271.6730  88.4020 15.27576698151017

JSON: /api/v1/satellites/58793 · /tle

For live sub-satellite position, see the globe view (requires WebGL).

§ Visibility from observer

Set your observer location to see the next 7 days of passes ≥ 10°. The values pass through the URL so the page stays shareable.

No JS? Fill the form by hand. The geolocation button needs JavaScript.